Regional Weather Roundup
Issued by NWS

Home | Current Version | Previous Version | Graphics & Text | Print | Product List | Glossary On
Versions: 1 2 3 4 5 6 7 8 9 10 11 12 13 14 15 16 17 18 19 20 21 22 23 24 25 26 27
000
ASUS45 KSLC 162110
RWRUT

UTAH REGIONAL WEATHER ROUNDUP
NATIONAL WEATHER SERVICE SALT LAKE CITY UT
200 PM MST SAT DEC 16 2017

UTZ001>011-023>025-162200-

NORTHERN UTAH

CITY           SKY/WX    TMP DP  RH WIND       PRES   REMARKS
BRIGHAM CITY   CLOUDY    34  28  80 N13       29.91S WCI  25
HILL AFB       MIX PCPN  32  28  86 NW6       29.89R WCI  26
LOGAN          LGT SNOW  34  27  75 N14       29.91R WCI  25
OGDEN          CLOUDY    33  28  81 NW7       29.89S WCI  27
SALT LAKE CITY CLOUDY    34  30  85 NW10      29.91S WCI  26
TOOELE VALLEY  LGT SNOW  32  32 100 N9        29.93S WCI  24
WENDOVER       CLOUDY    38  19  46 N10G26    29.93F WCI  31
HEBER CITY     CLOUDY    37  21  52 SW9       29.76F WCI  31
WEST JORDAN    CLOUDY    30  30 100 NW8       29.91S WCI  23

$$

UTZ011>015-024>027-162200-

CENTRAL/NORTHEAST UTAH

CITY           SKY/WX    TMP DP  RH WIND       PRES   REMARKS
PROVO AIRPORT  CLOUDY    34  29  82 NW22      29.87F FOG     WCI  22
MOAB/CANYONLAN CLOUDY    40  11  30 VRB6      29.77F
DELTA          CLOUDY    34  27  75 NW8       29.87S WCI  27
PRICE          MOSUNNY   39  13  34 SE5       29.75F
RICHFIELD      SUNNY     43   9  24 CALM      29.81S
ROOSEVELT      SUNNY     39  16  38 CALM      29.78F
VERNAL         CLOUDY    39  15  37 E5        29.76F

$$

UTZ013>016-019>022-027-162200-

SOUTHERN UTAH

CITY           SKY/WX    TMP DP  RH WIND       PRES   REMARKS
BRYCE CANYON   PTSUNNY   41  -3  15 NW12      29.76F
CEDAR CITY     MOSUNNY   44   8  23 NW12      29.77F
MILFORD        PTSUNNY   39  24  55 N21       29.83F WCI  29
ST GEORGE      CLOUDY    48  11  22 CALM      29.77F
HANKSVILLE     CLOUDY    36  12  38 CALM      29.81F
KANAB          SUNNY     54  -6   8 SW9       29.77F
BLANDING         N/A     40   8  26 SW3       29.85F

$$

REGIONAL REPORTS     COLORADO/ARIZONA

CITY           SKY/WX    TMP DP  RH WIND       PRES   REMARKS
CRAIG, CO      CLOUDY    33  13  43 CALM      29.77F
GRAND JUNCTION CLOUDY    39  10  30 NW5       29.76F
RIFLE, CO      CLOUDY    36   9  32 CALM      29.77F
MONTROSE, CO   CLOUDY    42   8  24 NW8       29.76F
CORTEZ, CO     CLOUDY    44   9  23 NW5       29.77F
COLORADO CITY    N/A     52   3  14 NW3       29.78F
PAGE, AZ       CLOUDY    42  15  33 W3        29.76F
GRAND CANYON   SUNNY     47   4  17 SW14G20   29.78F
KINGMAN, AZ    MOSUNNY   61  11  14 W16       29.72F
FLAGSTAFF, AZ  MOSUNNY   44   5  20 SW16G22   29.79F

$$

REGIONAL REPORTS    NEVADA/IDAHO/WYOMING

CITY           SKY/WX    TMP DP  RH WIND       PRES   REMARKS
LAS VEGAS, NV  MOSUNNY   59  15  18 CALM      29.73F
ELY, NY        CLOUDY    30  25  81 N12       29.88S WCI  20
ELKO, NV       CLOUDY    34  18  52 E3        29.99F
POCATELLO, ID  LGT SNOW  27  23  86 SW17      29.99S FOG     WCI  14
BURLEY, ID     CLOUDY    30  24  78 W14G22    30.00S WCI  19
FORT BRIDGER,  CLOUDY    35  26  71 NW6       29.80S WCI  29
EVANSTON, WY   FLURRIES  30  26  85 NW8       29.78F WCI  22
ROCK SPRINGS,  CLOUDY    35  24  64 NW7       29.75F WCI  29

$$




USA.gov is the U.S. government's official web portal to all federal, state and local government web resources and services.